#timestamp,LO_Frequency,Hit,Temp,Hum 
1480492815.2,286046875.4,N,0.0,0.0
1480492835.9,286046875.6,N,0.0,0.0
1480492855.7,286046876.2,N,0.0,0.0
1480492875.6,286046875.7,N,0.0,0.0
1480492895.4,286046875.4,N,0.0,0.0
1480492915.2,286046875.8,N,0.0,0.0
1480492935.1,286046876.3,N,0.0,0.0
1480492936.0,286046876.3,N,0.0,0.0
1480492955.8,286046875.9,N,0.0,0.0
1480492975.7,286046873.3,N,0.0,0.0
1480492995.5,286046873.7,N,0.0,0.0
1480493015.3,286046873.5,N,0.0,0.0
1480493035.2,286046874.1,N,0.0,0.0
1480493055.0,286046874.0,N,0.0,0.0
1480493055.9,286046874.0,N,0.0,0.0
1480493075.8,286046874.6,N,0.0,0.0
1480493095.6,286046873.6,N,0.0,0.0
1480493115.4,286046873.5,N,0.0,0.0
1480493135.3,286046876.1,N,0.0,0.0
1480493155.1,286046873.5,N,0.0,0.0
1480493175.9,286046873.5,N,0.0,0.0
1480493195.7,286046873.7,N,0.0,0.0
1480493215.5,286046873.8,N,0.0,0.0
1480493235.4,286046873.9,N,0.0,0.0
1480493255.2,286046873.5,N,0.0,0.0
1480493275.0,286046874.5,N,0.0,0.0
1480493276.0,286046874.5,N,0.0,0.0
1480493295.8,286046873.9,N,0.0,0.0
1480493315.6,286046874.5,N,0.0,0.0
1480493335.5,286046875.9,N,0.0,0.0
1480493355.3,286046873.8,N,0.0,0.0
1480493375.1,286046873.5,N,0.0,0.0
1480493395.9,286046874.6,N,0.0,0.0
1480493415.7,286046874.4,N,0.0,0.0
1480493435.6,286046874.2,N,0.0,0.0
1480493455.4,286046873.8,N,0.0,0.0
1480493475.2,286046874.5,N,0.0,0.0
1480493495.1,286046874.2,N,0.0,0.0
1480493496.0,286046874.2,N,0.0,0.0
1480493515.8,286046874.7,N,0.0,0.0
1480493535.7,286046873.9,N,0.0,0.0
1480493555.5,286046874.3,N,0.0,0.0
1480493575.3,286046874.1,N,0.0,0.0
1480493595.2,286046876.4,N,0.0,0.0
1480493615.0,286046875.1,N,0.0,0.0
1480493615.9,286046875.1,N,0.0,0.0
1480493635.7,286046873.3,N,0.0,0.0
1480493655.6,286046873.8,N,0.0,0.0
1480493675.4,286046873.7,N,0.0,0.0
1480493695.3,286046875.6,N,0.0,0.0
1480493715.1,286046873.5,N,0.0,0.0
1480493735.8,286046873.9,N,0.0,0.0
1480493755.7,286046874.1,N,0.0,0.0
1480493775.5,286046873.3,N,0.0,0.0
1480493795.4,286046874.1,N,0.0,0.0
1480493815.2,286046874.2,N,0.0,0.0
1480493835.0,286046874.4,N,0.0,0.0
1480493835.9,286046874.4,N,0.0,0.0
1480493855.8,286046874.5,N,0.0,0.0
1480493875.6,286046872.3,N,0.0,0.0
1480493895.5,286046870.2,N,0.0,0.0
1480493915.3,286046870.3,N,0.0,0.0
1480493935.1,286046872.8,N,0.0,0.0
1480493955.9,286046872.2,N,0.0,0.0
1480493975.7,286046871.9,N,0.0,0.0
1480493995.5,286046871.8,N,0.0,0.0
1480494015.4,286046873.9,N,0.0,0.0
1480494035.2,286046872.3,N,0.0,0.0
1480494055.1,286046872.5,N,0.0,0.0
1480494056.0,286046872.5,N,0.0,0.0
1480494075.8,286046872.9,N,0.0,0.0
1480494095.6,286046872.1,N,0.0,0.0
1480494115.5,286046870.3,N,0.0,0.0
1480494135.3,286046870.5,N,0.0,0.0
1480494155.2,286046873.2,N,0.0,0.0
1480494175.9,286046870.1,N,0.0,0.0
1480494195.7,286046870.3,N,0.0,0.0
1480494215.6,286046870.4,N,0.0,0.0
1480494235.4,286046870.6,N,0.0,0.0
1480494255.3,286046873.0,N,0.0,0.0
1480494275.1,286046870.7,N,0.0,0.0
1480494276.0,286046870.7,N,0.0,0.0
1480494295.8,286046870.7,N,0.0,0.0
1480494315.7,286046871.4,N,0.0,0.0
1480494335.5,286046871.0,N,0.0,0.0
1480494355.3,286046868.8,N,0.0,0.0
1480494375.2,286046868.6,N,0.0,0.0
1480494395.0,286046871.5,N,0.0,0.0
1480494395.9,286046871.5,N,0.0,0.0
1480494415.8,286046870.7,N,0.0,0.0
1480494435.6,286046868.5,N,0.0,0.0
1480494455.4,286046871.4,N,0.0,0.0
1480494475.3,286046870.9,N,0.0,0.0
1480494495.1,286046870.1,N,0.0,0.0
1480494515.9,286046871.1,N,0.0,0.0
1480494535.7,286046868.5,N,0.0,0.0
1480494555.5,286046871.1,N,0.0,0.0
1480494575.4,286046870.6,N,0.0,0.0
1480494595.2,286046868.9,N,0.0,0.0
1480494615.0,286046868.6,N,0.0,0.0
1480494616.0,286046868.6,N,0.0,0.0
1480494635.8,286046868.9,N,0.0,0.0
1480494655.6,286046871.5,N,0.0,0.0
1480494675.5,286046868.7,N,0.0,0.0
1480494695.3,286046868.6,N,0.0,0.0
1480494715.1,286046871.5,N,0.0,0.0
1480494735.9,286046871.2,N,0.0,0.0
1480494755.7,286046869.1,N,0.0,0.0
1480494775.6,286046869.6,N,0.0,0.0
1480494795.4,286046867.4,N,0.0,0.0
1480494815.2,286046869.1,N,0.0,0.0
1480494835.1,286046869.4,N,0.0,0.0
1480494836.0,286046869.4,N,0.0,0.0
1480494855.8,286046869.8,N,0.0,0.0
1480494875.7,286046869.5,N,0.0,0.0
1480494895.5,286046869.7,N,0.0,0.0
1480494915.3,286046869.5,N,0.0,0.0
1480494935.2,286046869.7,N,0.0,0.0
1480494955.0,286046868.8,N,0.0,0.0
1480494955.9,286046868.8,N,0.0,0.0
1480494975.7,286046869.3,N,0.0,0.0
1480494995.6,286046866.9,N,0.0,0.0
1480495015.4,286046867.5,N,0.0,0.0
1480495035.3,286046867.5,N,0.0,0.0
1480495055.1,286046867.1,N,0.0,0.0
1480495075.8,286046868.1,N,0.0,0.0
1480495095.7,286046867.9,N,0.0,0.0
1480495115.5,286046865.3,N,0.0,0.0
1480495135.4,286046867.0,N,0.0,0.0
1480495155.2,286046867.9,N,0.0,0.0
1480495175.0,286046868.1,N,0.0,0.0
1480495175.9,286046868.1,N,0.0,0.0
1480495195.8,286046868.4,N,0.0,0.0
1480495215.6,286046867.9,N,0.0,0.0
1480495235.5,286046865.7,N,0.0,0.0
1480495255.3,286046865.3,N,0.0,0.0
1480495275.1,286046865.4,N,0.0,0.0
1480495295.9,286046867.4,N,0.0,0.0
1480495315.7,286046868.0,N,0.0,0.0
1480495335.5,286046868.0,N,0.0,0.0
1480495355.4,286046865.4,N,0.0,0.0
1480495375.2,286046868.2,N,0.0,0.0
1480495395.1,286046868.4,N,0.0,0.0
1480495396.0,286046868.4,N,0.0,0.0
1480495415.8,286046865.7,N,0.0,0.0
1480495435.6,286046865.7,N,0.0,0.0
1480495455.5,286046868.4,N,0.0,0.0
1480495475.3,286046865.7,N,0.0,0.0
1480495495.2,286046865.4,N,0.0,0.0
1480495515.9,286046865.7,N,0.0,0.0
1480495535.7,286046865.3,N,0.0,0.0
1480495555.6,286046866.2,N,0.0,0.0
1480495575.4,286046866.3,N,0.0,0.0
1480495595.2,286046866.3,N,0.0,0.0
1480495615.1,286046866.5,N,0.0,0.0
1480495616.0,286046866.5,N,0.0,0.0
1480495635.8,286046866.8,N,0.0,0.0
1480495655.7,286046866.8,N,0.0,0.0
1480495675.5,286046865.5,N,0.0,0.0
1480495695.3,286046865.4,N,0.0,0.0
1480495715.2,286046863.8,N,0.0,0.0
1480495735.0,286046863.8,N,0.0,0.0
1480495735.9,286046863.8,N,0.0,0.0
1480495755.8,286046864.0,N,0.0,0.0
1480495775.6,286046866.3,N,0.0,0.0
1480495795.4,286046864.4,N,0.0,0.0
1480495815.3,286046865.0,N,0.0,0.0
1480495835.1,286046864.9,N,0.0,0.0
1480495855.8,286046864.4,N,0.0,0.0
1480495875.7,286046864.9,N,0.0,0.0
1480495895.5,286046865.0,N,0.0,0.0
1480495915.4,286046864.5,N,0.0,0.0
1480495935.2,286046864.0,N,0.0,0.0
1480495955.0,286046864.4,N,0.0,0.0
1480495955.9,286046864.4,N,0.0,0.0
1480495975.8,286046864.2,N,0.0,0.0
1480495995.6,286046864.3,N,0.0,0.0
1480496015.5,286046866.7,N,0.0,0.0
1480496035.3,286046863.8,N,0.0,0.0
1480496055.1,286046865.0,N,0.0,0.0
1480496075.9,286046865.1,N,0.0,0.0
1480496095.7,286046864.4,N,0.0,0.0
1480496115.6,286046862.6,N,0.0,0.0
1480496135.4,286046862.2,N,0.0,0.0
1480496155.2,286046865.0,N,0.0,0.0
1480496175.1,286046863.9,N,0.0,0.0
1480496176.0,286046863.9,N,0.0,0.0
1480496195.8,286046865.1,N,0.0,0.0
1480496215.7,286046865.2,N,0.0,0.0
1480496235.5,286046864.5,N,0.0,0.0
1480496255.3,286046864.6,N,0.0,0.0
1480496275.2,286046865.2,N,0.0,0.0
1480496295.9,286046862.7,N,0.0,0.0
1480496315.7,286046862.9,N,0.0,0.0
1480496335.6,286046864.8,N,0.0,0.0
1480496355.4,286046862.4,N,0.0,0.0
1480496375.3,286046862.9,N,0.0,0.0
1480496395.1,286046863.3,N,0.0,0.0
1480496396.0,286046863.3,N,0.0,0.0
